Location: Brad
(46.1333°N, 22.7833°E)
Time: 11:46:56
(UTC+00:00)

Cosmos 1340 - Pass Details

Date: 03 February 2023
Orbit: 479 x 484 km, 81.2° (Epoch: 21 March)

Event Time Altitude Azimuth Distance (km) Brightness Sun altitude
Rises 17:02:06 0° 354° (N) 2,554 6.2 -15.1°
Reaches altitude 10° 17:04:17 10° 2° (N) 1,671 5.2 -15.5°
Maximum altitude 17:07:48 44° 75° (ENE) 681 2.8 -16.1°
Enters shadow 17:10:32 15° 144° (SE) 1,370 4.6 -16.5°
